Retour au catalogue

STARLINK-11530

ActifCommunicationsVLEO
NORAD 62562·PAYLOAD·🇺🇸 United States

Lancé Jan 10, 2025 depuis Cape Canaveral Space Force Station

Loading…

Prochains Passages (prochaines 24 heures)

TLE

FraisSource: CelesTrak SupGP

Époque: Sep 14, 2026, 22:48 UTC

1 62562C 25006J   26257.95048611  .00062881  00000+0  48833-3 0  2570
2 62562  43.0007  79.4759 0001672 275.7390  95.3762 15.70810231    18

Suivez STARLINK-11530 en temps réel avec AllMySat

Download on the App Store